Location: Wien
(48.2082°N, 16.3738°E)
Time: 05:56:43
(UTC+02:00)

EO-79 - Pass Details

Date: 30 March 2019
Orbit: 593 x 609 km, 97.9° (Epoch: 21 April)

Event Time Altitude Azimuth Distance (km) Brightness Sun altitude
Rises 01:11:17 0° 6° (N) 2,880 ? -35.9°
Reaches altitude 10° 01:13:36 10° 358° (N) 1,972 ? -35.7°
Enters shadow 01:14:23 15° 353° (N) 1,684 ? -35.7°
